Погода в Зюзино

Россия / Удмуртская Республика     57°28′21″N   54°01′51″E
темп.,
°C
ветер,
м/с
пор.,
м/с
влажн.,
%
обл.,
%
осадки,
мм/ч
давл.,
гПа
погр.,
м
22 января, сб
сб2201:00−19ю3410099 0.0 102450
04:00−19юв33100100 0.1 102539
07:00−18ююв3410099 0.1 102571
10:00−17ююв38100100 0.1 1027158
13:00−13ююв3696100 0.1 1027200
16:00−12юв3798100 0.1 1028161
19:00−15юв38100100 0.0 1029109
22:00−16юв34100100 0.0 103061
23 января, вс
вс2301:00−14юв3898100 0.0 1030137
04:00−12ююв31096100 0.0 1031227
07:00−12ююв3995100 0.0 1031200
10:00−11ююв3993100 0.0 1032206
13:00−9ю4889100 0.0 1033255
16:00−8ю3894100 0.0 1034270
19:00−9ю3796100 0.1 1035210
22:00−8ю3696100 0.5 1036213
24 января, пн
пн2401:00−8ююз2696100 0.8 1036210
04:00−8юз2597100 1.0 1037136
07:00−9зюз2397100 0.2 103753
10:00−13з229979 0.3 103924
13:00−8зсз249469 0.0 1038164
16:00−11зюз229861 0.0 103910
19:00−16зюз2210097 0.0 103911
22:00−17з22100100 0.0 103921
25 января, вт
вт2501:00−18зюз23100100 0.0 103825
04:00−16юз24100100 0.0 103655
07:00−17зюз33100100 0.0 103547
10:00−15юз36100100 0.1 1034101
13:00−9юз369699 0.0 1032192
16:00−11ююз369744 0.1 103186
19:00−14ююз489728 0.0 1031101
22:00−17ююз389714 0.0 103093
26 января, ср
ср2601:00−19ююз369815 0.0 102969
04:00−19ююз389943 0.0 102997
07:00−19ююз389972 0.0 1028104
10:00−18ююз499990 0.0 1028150
13:00−13ююз4896100 0.0 1027220
16:00−13ю389798 0.1 1027192
19:00−14ю399997 0.1 1026166
22:00−15ю3998100 0.1 1026157